Weather Roundup
Issued by NWS

Home | Current Version | Previous Version | Graphics & Text | Print | Product List | Glossary Off
Versions: 1 2 3 4 5 6 7 8 9 10 11 12 13 14 15 16 17 18 19 20 21 22 23 24 25 26 27 28 29 30 31 32 33 34 35 36 37 38 39 40 41 42 43 44 45 46 47 48 49 50

000
NZUS93 KARX 082359
HRRWXR

CURRENT HOURLY OBSERVATIONS ACROSS
MUCH OF THE UPPER MISSISSIPPI VALLEY
NATIONAL WEATHER SERVICE LA CROSSE WI
700 PM CDT TUE JUL 08 2014


...SOUTHEAST MINNESOTA...


CITY           SKY/WX    TMP DP  RH WIND       PRES   REMARKS
ROCHESTER      SUNNY     72  53  51 NW14      29.87R
ROCHESTER/MAYO FAIR      73  49  42 W17G24    29.85R
WINONA         MOSUNNY   75  57  53 NW12      29.82R
AUSTIN         SUNNY     73  45  35 NW13G28   29.87R
ALBERT LEA     SUNNY     75  48  38 NW12G22   29.88R
DODGE CENTER   SUNNY     73  54  49 NW13G20   29.87R
PRESTON        MOSUNNY   72  55  54 NW16      29.87R
OWATONNA       SUNNY     73  52  46 NW17      29.87S
FARIBAULT      SUNNY     75  46  35 W15       29.87S
$$

...ELSEWHERE IN MINNESOTA...


CITY           SKY/WX    TMP DP  RH WIND       PRES   REMARKS
MINNEAPOLIS    MOSUNNY   74  52  46 NW18      29.85R
INTNL FALLS    MOSUNNY   66  49  54 NW18G28   29.85R
DULUTH         MOSUNNY   64  58  80 NW7       29.82R
RED WING       MOSUNNY   75  52  43 NW8       29.82R
REDWOOD FALLS  MOSUNNY   76  49  38 NW13G22   29.90R
MANKATO        SUNNY     73  48  40 NW20      29.88S
WORTHINGTON    MOSUNNY   73  55  53 NW18      29.96R
FAIRMONT       NOT AVBL
$$

...SOUTHWEST WISCONSIN...


CITY           SKY/WX    TMP DP  RH WIND       PRES   REMARKS
LA CROSSE      SUNNY     78  55  44 NW18      29.80R
PRAIRIE DU CHI MOSUNNY   76  53  44 NW10G17   29.81R
BOSCOBEL       SUNNY     78  55  44 NW13      29.81R
LONE ROCK      NOT AVBL
PLATTEVILLE    SUNNY     76  56  50 W8        29.84R
FORT MC COY    SUNNY     75  54  47 NW8       29.81R
VIROQUA        FAIR      74  56  53 NW8       29.82R
WIS DELLS      CLOUDY    71  53  52 NW7       29.80R
$$

...ELSEWHERE IN WISCONSIN...


CITY           SKY/WX    TMP DP  RH WIND       PRES   REMARKS
MILWAUKEE      MOSUNNY   78  52  40 NW14      29.75R
MADISON        PTSUNNY   74  55  51 NW9G16    29.79R
GREEN BAY      CLOUDY    68  61  78 N9        29.74R
EAU CLAIRE     NOT AVBL
BLACK RVR FLS  MOCLDY    73  52  49 NW7       29.79R
MEDFORD        PTSUNNY   63  57  82 NW10      29.81R
WAUSAU         PTSUNNY   67  59  75 NW14      29.76R
WIS RAPIDS     LGT RAIN  68  57  68 W14       29.80R
MARSHFIELD     PTSUNNY   65  59  81 NW13      29.80R
RICE LAKE      PTSUNNY   67  55  67 N9        29.83R
$$

...NORTHEAST IOWA...


CITY           SKY/WX    TMP DP  RH WIND       PRES   REMARKS
WATERLOO       MOSUNNY   77  56  48 W12       29.85S
DUBUQUE        SUNNY     75  57  53 NW8       29.85R
DECORAH          N/A    N/A N/A N/A MISG        N/A
MASON CITY     SUNNY     76  54  46 NW21G26   29.89S
CHARLES CITY   SUNNY     77  52  41 NW18G28   29.86S
OELWEIN        MOSUNNY   77 -33   1 NW15      29.86R
$$

...ELSEWHERE IN IOWA...


CITY           SKY/WX    TMP DP  RH WIND       PRES   REMARKS
DES MOINES     MOSUNNY   80  57  45 NW13      29.91S
IOWA CITY      SUNNY     78  59  51 W10       29.88S
FORT DODGE     PTSUNNY   75  57  53 NW8       29.92R
MARSHALLTOWN   PTSUNNY   76  60  57 W9G18     29.88S
CEDAR RAPIDS   SUNNY     76  58  53 W12       29.86S
$$

...NORTHERN ILLINOIS...


CITY           SKY/WX    TMP DP  RH WIND       PRES   REMARKS
CHICAGO-OHARE  MOSUNNY   78  56  46 NW20G28   29.77R
DUPAGE         SUNNY     78  57  48 NW14G26   29.79R
CHICAGO-MIDWAY PTSUNNY   80  58  46 W15G21    29.77R
MOLINE         PTSUNNY   79  58  48 NW14G23   29.85R
ROCKFORD       MOSUNNY   77  55  46 NW15G21   29.82R
STERLING       SUNNY     77  61  57 NW13      29.83S
PEORIA         PTSUNNY   78  60  53 NW8       29.86R
$$

NOTE: "FAIR" INDICATES FEW OR NO CLOUDS BELOW 12,000 FEET WITH NO
SIGNIFICANT WEATHER AND/OR OBSTRUCTIONS TO VISIBILITY. WIND
SPEEDS ARE IN MILES-PER-HOUR.



USA.gov is the U.S. government's official web portal to all federal, state and local government web resources and services.